EWG149 LIMC-EDDL

Flight info

Callsign EWG149
Flight time 1h 4m
Altitude 34000
Route AOSTA DCT ORSUD DCT MOLUS DCT GILIR DCT PENDU DCT IXILU DCT GIVOR DCT SORAL DCT IBERA N853 DIK/N0445F310 N853 ARCKY T853 NVO T857 BIKMU BIKMU1A
Aircraft A321/M-SDE3FGHIRWY/LB1

Departure

Time 2026-05-05 17:25
Airport Milan Malpensa International Airport (LIMC)

Arrival

Time 2026-05-05 18:29
Airport Düsseldorf Airport (EDDL)
Time Latitude Longitude Altitude Speed Heading
2026-05-05 16:53 45.62290 8.72030 753 ft 0 kts 79°
2026-05-05 17:17 45.62290 8.72031 753 ft 0 kts 79°
2026-05-05 17:17 45.62292 8.72041 748 ft 2 kts 78°
2026-05-05 17:17 45.62297 8.72092 748 ft 7 kts 94°
2026-05-05 17:17 45.62261 8.72134 750 ft 7 kts 158°
2026-05-05 17:18 45.62217 8.72170 750 ft 9 kts 130°
2026-05-05 17:18 45.62212 8.72243 752 ft 6 kts 83°
2026-05-05 17:18 45.62218 8.72295 747 ft 1 kts 79°
2026-05-05 17:18 45.62218 8.72298 751 ft 1 kts 79°
2026-05-05 17:19 45.62220 8.72316 747 ft 3 kts 79°
2026-05-05 17:19 45.62222 8.72325 751 ft 0 kts 78°
2026-05-05 17:19 45.62222 8.72326 751 ft 1 kts 78°
2026-05-05 17:19 45.62230 8.72382 749 ft 12 kts 78°
2026-05-05 17:20 45.62254 8.72551 745 ft 21 kts 78°
2026-05-05 17:20 45.62279 8.72742 752 ft 18 kts 79°
2026-05-05 17:20 45.62303 8.72915 751 ft 16 kts 79°
2026-05-05 17:20 45.62251 8.73032 753 ft 15 kts 169°
2026-05-05 17:21 45.62145 8.73064 753 ft 16 kts 169°
2026-05-05 17:21 45.62029 8.73095 753 ft 17 kts 169°
2026-05-05 17:21 45.61913 8.73126 753 ft 17 kts 169°
2026-05-05 17:22 45.61712 8.73266 749 ft 17 kts 125°
2026-05-05 17:22 45.61648 8.73403 748 ft 17 kts 124°
2026-05-05 17:22 45.61633 8.73434 753 ft 0 kts 123°
2026-05-05 17:22 45.61632 8.73436 753 ft 2 kts 123°
2026-05-05 17:23 45.61616 8.73472 752 ft 6 kts 123°
2026-05-05 17:23 45.61594 8.73526 750 ft 8 kts 114°
2026-05-05 17:23 45.61587 8.73656 744 ft 19 kts 84°
2026-05-05 17:23 45.61657 8.73722 745 ft 8 kts 354°
2026-05-05 17:24 45.61681 8.73718 745 ft 21 kts 353°
2026-05-05 17:24 45.62070 8.73614 744 ft 91 kts 348°
2026-05-05 17:24 45.62891 8.73385 743 ft 148 kts 349°
2026-05-05 17:24 45.64046 8.73100 916 ft 177 kts 352°
2026-05-05 17:25 45.65246 8.72827 1622 ft 175 kts 349°
2026-05-05 17:25 45.65652 8.72722 1852 ft 176 kts 351°
2026-05-05 17:25 45.67827 8.72561 2298 ft 206 kts 359°
2026-05-05 17:25 45.69343 8.72561 2493 ft 226 kts 360°
2026-05-05 17:26 45.70950 8.72565 2935 ft 239 kts 356°
2026-05-05 17:26 45.72544 8.71808 3241 ft 256 kts 321°
2026-05-05 17:26 45.73558 8.69710 3789 ft 263 kts 284°
2026-05-05 17:26 45.73579 8.67106 4441 ft 266 kts 258°
2026-05-05 17:27 45.73050 8.64568 5143 ft 268 kts 249°
2026-05-05 17:27 45.72381 8.62070 5845 ft 270 kts 248°
2026-05-05 17:27 45.71555 8.59651 6495 ft 273 kts 232°
2026-05-05 17:27 45.70738 8.58233 6932 ft 274 kts 230°
2026-05-05 17:28 45.69589 8.56034 7581 ft 277 kts 234°
2026-05-05 17:28 45.68522 8.53718 8231 ft 280 kts 237°
2026-05-05 17:28 45.67488 8.51341 8865 ft 283 kts 237°
2026-05-05 17:28 45.66448 8.48929 9490 ft 286 kts 237°
2026-05-05 17:29 45.65410 8.46542 10124 ft 287 kts 237°
2026-05-05 17:29 45.64348 8.44118 10802 ft 287 kts 237°
2026-05-05 17:29 45.63259 8.41656 11129 ft 302 kts 236°
2026-05-05 17:29 45.61965 8.39184 11249 ft 320 kts 229°
2026-05-05 17:30 45.60527 8.36663 11380 ft 337 kts 234°
2026-05-05 17:30 45.59394 8.33655 11766 ft 350 kts 248°
2026-05-05 17:30 45.58808 8.30279 12321 ft 354 kts 262°
2026-05-05 17:30 45.58807 8.26754 12898 ft 359 kts 275°
2026-05-05 17:31 45.59397 8.23271 13463 ft 363 kts 284°
2026-05-05 17:31 45.60172 8.19832 14022 ft 364 kts 285°
2026-05-05 17:31 45.60973 8.16391 14552 ft 366 kts 285°
2026-05-05 17:31 45.61788 8.12932 15033 ft 369 kts 285°
2026-05-05 17:32 45.62608 8.09455 15540 ft 371 kts 285°
2026-05-05 17:32 45.63432 8.05947 16021 ft 374 kts 284°
2026-05-05 17:32 45.64257 8.02411 16516 ft 377 kts 284°
2026-05-05 17:32 45.65079 7.98850 17047 ft 378 kts 284°
2026-05-05 17:33 45.65900 7.95262 17524 ft 380 kts 284°
2026-05-05 17:33 45.66721 7.91656 17889 ft 383 kts 283°
2026-05-05 17:33 45.67550 7.88013 18263 ft 387 kts 284°
2026-05-05 17:33 45.68387 7.84344 18640 ft 389 kts 283°
2026-05-05 17:34 45.69236 7.80649 19031 ft 391 kts 284°
2026-05-05 17:34 45.70087 7.76944 19454 ft 392 kts 283°
2026-05-05 17:34 45.70938 7.73229 19893 ft 395 kts 283°
2026-05-05 17:34 45.71790 7.69483 20295 ft 397 kts 283°
2026-05-05 17:35 45.72645 7.65707 20687 ft 400 kts 283°
2026-05-05 17:35 45.73505 7.61904 20915 ft 402 kts 284°
2026-05-05 17:35 45.74354 7.58139 21212 ft 404 kts 283°
2026-05-05 17:35 45.75219 7.54309 21613 ft 405 kts 283°
2026-05-05 17:36 45.76086 7.50463 22016 ft 407 kts 283°
2026-05-05 17:36 45.76956 7.46587 22371 ft 409 kts 283°
2026-05-05 17:36 45.77829 7.42694 22743 ft 411 kts 283°
2026-05-05 17:36 45.78843 7.38832 23100 ft 418 kts 291°
2026-05-05 17:37 45.80356 7.35215 23434 ft 428 kts 302°
2026-05-05 17:37 45.82362 7.32016 23692 ft 437 kts 313°
2026-05-05 17:37 45.84795 7.29328 23965 ft 444 kts 320°
2026-05-05 17:37 45.87327 7.26776 24219 ft 446 kts 320°
2026-05-05 17:38 45.89866 7.24210 24545 ft 447 kts 319°
2026-05-05 17:38 45.92413 7.21625 24873 ft 449 kts 319°
2026-05-05 17:38 45.94960 7.19031 25167 ft 449 kts 319°
2026-05-05 17:38 45.97507 7.16423 25391 ft 450 kts 319°
2026-05-05 17:39 46.00061 7.13801 25622 ft 452 kts 319°
2026-05-05 17:39 46.02624 7.11166 25880 ft 454 kts 320°
2026-05-05 17:39 46.05205 7.08513 26117 ft 455 kts 320°
2026-05-05 17:39 46.07794 7.05852 26381 ft 457 kts 320°
2026-05-05 17:40 46.10386 7.03184 26656 ft 459 kts 320°
2026-05-05 17:40 46.12958 7.00536 26935 ft 460 kts 320°
2026-05-05 17:40 46.15601 6.97818 27236 ft 462 kts 320°
2026-05-05 17:40 46.18191 6.95156 27501 ft 464 kts 320°
2026-05-05 17:41 46.20824 6.92450 27731 ft 466 kts 320°
2026-05-05 17:41 46.23466 6.89722 27973 ft 467 kts 320°
2026-05-05 17:41 46.26105 6.86986 28214 ft 468 kts 320°
2026-05-05 17:41 46.28744 6.84240 28536 ft 467 kts 319°
2026-05-05 17:42 46.31377 6.81496 28876 ft 466 kts 319°
2026-05-05 17:42 46.34008 6.78756 29174 ft 467 kts 319°
2026-05-05 17:42 46.36650 6.76004 29464 ft 467 kts 319°
2026-05-05 17:42 46.39287 6.73262 29743 ft 467 kts 320°
2026-05-05 17:43 46.41922 6.70521 29982 ft 467 kts 320°
2026-05-05 17:43 46.44623 6.67879 30195 ft 470 kts 325°
2026-05-05 17:43 46.47547 6.65707 30403 ft 473 kts 330°
2026-05-05 17:43 46.50515 6.63632 30658 ft 473 kts 329°
2026-05-05 17:44 46.53482 6.61555 30903 ft 472 kts 329°
2026-05-05 17:44 46.56438 6.59482 31154 ft 472 kts 329°
2026-05-05 17:44 46.59352 6.57429 31397 ft 471 kts 329°
2026-05-05 17:44 46.62304 6.55340 31656 ft 470 kts 329°
2026-05-05 17:45 46.65241 6.53257 31874 ft 470 kts 329°
2026-05-05 17:45 46.68177 6.51175 32119 ft 469 kts 329°
2026-05-05 17:45 46.71121 6.49088 32376 ft 469 kts 329°
2026-05-05 17:45 46.74059 6.47004 32522 ft 471 kts 329°
2026-05-05 17:46 46.77010 6.44907 32706 ft 471 kts 329°
2026-05-05 17:46 46.79952 6.42811 32930 ft 471 kts 329°
2026-05-05 17:46 46.82890 6.40714 33200 ft 469 kts 329°
2026-05-05 17:46 46.85820 6.38624 33465 ft 468 kts 329°
2026-05-05 17:47 46.88742 6.36545 33696 ft 466 kts 329°
2026-05-05 17:47 46.91659 6.34470 33875 ft 466 kts 329°
2026-05-05 17:47 46.94571 6.32388 33925 ft 465 kts 329°
2026-05-05 17:48 47.00373 6.28224 33900 ft 464 kts 329°
2026-05-05 17:48 47.06166 6.24040 33902 ft 463 kts 329°
2026-05-05 17:49 47.11952 6.19869 33897 ft 463 kts 330°
2026-05-05 17:49 47.17696 6.15736 33894 ft 463 kts 330°
2026-05-05 17:50 47.23485 6.11551 33888 ft 464 kts 330°
2026-05-05 17:50 47.29278 6.07352 33882 ft 464 kts 330°
2026-05-05 17:51 47.35357 6.04035 33880 ft 472 kts 346°
2026-05-05 17:51 47.41937 6.03411 33881 ft 477 kts 359°
2026-05-05 17:52 47.48577 6.03586 33883 ft 477 kts 359°
2026-05-05 17:52 47.55228 6.03719 33890 ft 478 kts 359°
2026-05-05 17:53 47.61838 6.03860 33884 ft 477 kts 359°
2026-05-05 17:53 47.68475 6.04020 33887 ft 476 kts 359°
2026-05-05 17:54 47.75081 6.04609 33886 ft 477 kts
2026-05-05 17:54 47.81530 6.06931 33887 ft 476 kts 13°
2026-05-05 17:55 47.87957 6.09355 33887 ft 476 kts 14°
2026-05-05 17:55 47.94376 6.11785 33894 ft 475 kts 13°
2026-05-05 17:56 48.00775 6.14197 33874 ft 472 kts 13°
2026-05-05 17:56 48.07149 6.16602 33864 ft 472 kts 13°
2026-05-05 17:57 48.13521 6.19014 33855 ft 471 kts 14°
2026-05-05 17:57 48.19883 6.21450 33840 ft 471 kts 14°
2026-05-05 17:58 48.26197 6.23859 33842 ft 470 kts 14°
2026-05-05 17:58 48.32541 6.26286 33848 ft 471 kts 15°
2026-05-05 17:59 48.38892 6.28736 33856 ft 471 kts 15°
2026-05-05 17:59 48.45236 6.31167 33856 ft 470 kts 15°
2026-05-05 18:00 48.51552 6.33588 33838 ft 468 kts 15°
2026-05-05 18:00 48.57869 6.36041 33839 ft 469 kts 16°
2026-05-05 18:01 48.64166 6.38490 33834 ft 468 kts 14°
2026-05-05 18:01 48.70644 6.39631 33835 ft 470 kts
2026-05-05 18:02 48.77187 6.40273 33842 ft 471 kts
2026-05-05 18:02 48.83726 6.40938 33844 ft 471 kts
2026-05-05 18:03 48.90259 6.41612 33844 ft 470 kts
2026-05-05 18:03 48.96790 6.42286 33863 ft 470 kts
2026-05-05 18:04 49.03268 6.42946 33869 ft 469 kts
2026-05-05 18:04 49.09786 6.43469 33870 ft 469 kts 359°
2026-05-05 18:05 49.16214 6.41802 33843 ft 470 kts 345°
2026-05-05 18:05 49.22531 6.39183 33837 ft 470 kts 346°
2026-05-05 18:06 49.28851 6.36590 33848 ft 470 kts 346°
2026-05-05 18:06 49.35177 6.33989 33821 ft 470 kts 346°
2026-05-05 18:07 49.41520 6.31378 33836 ft 471 kts 346°
2026-05-05 18:07 49.47849 6.28748 33825 ft 471 kts 346°
2026-05-05 18:08 49.54130 6.26136 33820 ft 470 kts 346°
2026-05-05 18:08 49.60486 6.23771 33811 ft 468 kts 357°
2026-05-05 18:08 49.63724 6.23700 33188 ft 467 kts
2026-05-05 18:09 49.67010 6.23971 31937 ft 476 kts
2026-05-05 18:09 49.70333 6.24341 30972 ft 479 kts
2026-05-05 18:09 49.73647 6.24755 30060 ft 480 kts
2026-05-05 18:09 49.76967 6.25172 29241 ft 476 kts
2026-05-05 18:10 49.80279 6.25575 28160 ft 478 kts
2026-05-05 18:10 49.83570 6.25950 27588 ft 471 kts
2026-05-05 18:10 49.86818 6.26299 26951 ft 465 kts
2026-05-05 18:10 49.90029 6.26634 26334 ft 461 kts
2026-05-05 18:11 49.93218 6.26961 25726 ft 456 kts
2026-05-05 18:11 49.96368 6.27282 25120 ft 451 kts
2026-05-05 18:11 49.98434 6.27497 24713 ft 448 kts
2026-05-05 18:11 50.02570 6.27938 23919 ft 443 kts
2026-05-05 18:12 50.04602 6.28158 23529 ft 440 kts
2026-05-05 18:12 50.07641 6.28492 22882 ft 435 kts
2026-05-05 18:12 50.11604 6.28935 22132 ft 426 kts
2026-05-05 18:12 50.13593 6.29156 21753 ft 422 kts
2026-05-05 18:13 50.16503 6.29480 21205 ft 416 kts
2026-05-05 18:13 50.19371 6.29791 20676 ft 411 kts
2026-05-05 18:13 50.22210 6.30099 20172 ft 406 kts
2026-05-05 18:13 50.25009 6.30406 19671 ft 401 kts
2026-05-05 18:14 50.27736 6.30703 19202 ft 396 kts
2026-05-05 18:14 50.30467 6.31001 18732 ft 391 kts
2026-05-05 18:14 50.33115 6.31615 18530 ft 378 kts 15°
2026-05-05 18:14 50.35641 6.32759 18388 ft 378 kts 16°
2026-05-05 18:15 50.38150 6.33892 17934 ft 374 kts 16°
2026-05-05 18:15 50.40645 6.35014 17376 ft 372 kts 16°
2026-05-05 18:15 50.43121 6.36130 16852 ft 368 kts 16°
2026-05-05 18:15 50.45573 6.37238 16324 ft 365 kts 16°
2026-05-05 18:16 50.48004 6.38342 15799 ft 363 kts 16°
2026-05-05 18:16 50.50419 6.39444 15254 ft 360 kts 17°
2026-05-05 18:16 50.52815 6.40539 14775 ft 358 kts 17°
2026-05-05 18:16 50.55203 6.41631 14283 ft 355 kts 17°
2026-05-05 18:17 50.57563 6.42717 13801 ft 353 kts 17°
2026-05-05 18:17 50.59904 6.43794 13451 ft 345 kts 17°
2026-05-05 18:17 50.62184 6.44838 13084 ft 338 kts 17°
2026-05-05 18:17 50.64405 6.45853 12821 ft 335 kts 17°
2026-05-05 18:18 50.66621 6.46862 12809 ft 319 kts 17°
2026-05-05 18:18 50.68726 6.47827 12821 ft 314 kts 17°
2026-05-05 18:18 50.70821 6.48791 12829 ft 313 kts 17°
2026-05-05 18:18 50.72908 6.49755 12829 ft 313 kts 17°
2026-05-05 18:19 50.74998 6.50721 12836 ft 313 kts 17°
2026-05-05 18:19 50.77095 6.51692 12832 ft 313 kts 17°
2026-05-05 18:19 50.79180 6.52482 12785 ft 311 kts
2026-05-05 18:19 50.81332 6.52571 12357 ft 308 kts 359°
2026-05-05 18:20 50.83467 6.52500 11895 ft 307 kts 359°
2026-05-05 18:20 50.85595 6.52425 11470 ft 306 kts 357°
2026-05-05 18:20 50.87747 6.52348 10870 ft 312 kts 358°
2026-05-05 18:20 50.89929 6.52283 10454 ft 311 kts 358°
2026-05-05 18:21 50.92070 6.52223 10083 ft 306 kts 358°
2026-05-05 18:21 50.94188 6.52168 9669 ft 303 kts 358°
2026-05-05 18:21 50.96290 6.52131 9195 ft 301 kts 358°
2026-05-05 18:21 50.98384 6.52085 8782 ft 300 kts 358°
2026-05-05 18:22 51.00451 6.52029 8505 ft 292 kts 358°
2026-05-05 18:22 51.02430 6.51976 8202 ft 284 kts 358°
2026-05-05 18:22 51.04340 6.51931 7862 ft 266 kts 358°
2026-05-05 18:22 51.06165 6.51886 7323 ft 259 kts 358°
2026-05-05 18:23 51.07952 6.51836 6737 ft 256 kts 358°
2026-05-05 18:23 51.09729 6.51786 6122 ft 254 kts 358°
2026-05-05 18:23 51.11480 6.51736 5497 ft 250 kts 358°
2026-05-05 18:23 51.13205 6.51689 4906 ft 245 kts
2026-05-05 18:24 51.14836 6.52299 4297 ft 240 kts 20°
2026-05-05 18:24 51.16371 6.53289 3715 ft 236 kts 23°
2026-05-05 18:24 51.17797 6.54380 3468 ft 219 kts 35°
2026-05-05 18:24 51.18821 6.56091 3205 ft 210 kts 52°
2026-05-05 18:25 51.19676 6.57885 2925 ft 195 kts 52°
2026-05-05 18:25 51.20202 6.58988 2752 ft 183 kts 52°
2026-05-05 18:25 51.21183 6.61035 2439 ft 165 kts 52°
2026-05-05 18:25 51.21853 6.62430 2235 ft 155 kts 52°
2026-05-05 18:26 51.22481 6.63742 2030 ft 145 kts 52°
2026-05-05 18:26 51.23080 6.64995 1838 ft 141 kts 51°
2026-05-05 18:26 51.23674 6.66233 1622 ft 140 kts 50°
2026-05-05 18:26 51.24264 6.67465 1436 ft 139 kts 51°
2026-05-05 18:27 51.24854 6.68698 1239 ft 140 kts 51°
2026-05-05 18:27 51.25444 6.69934 1051 ft 139 kts 50°
2026-05-05 18:27 51.26033 6.71165 845 ft 140 kts 49°
2026-05-05 18:27 51.26628 6.72403 639 ft 141 kts 49°
2026-05-05 18:28 51.27804 6.74863 268 ft 140 kts 50°
2026-05-05 18:28 51.28393 6.76098 132 ft 133 kts 50°
2026-05-05 18:28 51.28862 6.77080 126 ft 87 kts 52°
2026-05-05 18:29 51.29129 6.77644 126 ft 49 kts 52°
2026-05-05 18:29 51.29281 6.77972 137 ft 24 kts 62°
2026-05-05 18:29 51.29258 6.78187 137 ft 15 kts 141°
2026-05-05 18:29 51.29245 6.78199 137 ft 0 kts 150°
2026-05-05 18:30 51.29243 6.78201 137 ft 2 kts 150°
2026-05-05 18:30 51.29211 6.78213 137 ft 6 kts 175°
2026-05-05 18:30 51.29166 6.78186 135 ft 9 kts 224°
2026-05-05 18:31 51.29113 6.78095 133 ft 13 kts 228°
2026-05-05 18:31 51.29054 6.77961 127 ft 16 kts 234°
2026-05-05 18:31 51.28986 6.77813 130 ft 17 kts 232°
2026-05-05 18:31 51.28911 6.77662 128 ft 18 kts 233°
2026-05-05 18:32 51.28834 6.77497 126 ft 19 kts 232°
2026-05-05 18:32 51.28751 6.77324 124 ft 20 kts 233°
2026-05-05 18:32 51.28665 6.77143 130 ft 21 kts 233°
2026-05-05 18:32 51.28591 6.76989 126 ft 15 kts 233°
2026-05-05 18:33 51.28538 6.76877 126 ft 3 kts 232°
2026-05-05 18:33 51.28530 6.76862 128 ft 0 kts 232°
2026-05-05 18:35 51.28513 6.76825 123 ft 8 kts 233°
2026-05-05 18:35 51.28473 6.76740 122 ft 11 kts 233°
2026-05-05 18:35 51.28423 6.76635 125 ft 13 kts 232°
2026-05-05 18:35 51.28366 6.76518 124 ft 14 kts 232°
2026-05-05 18:36 51.28307 6.76392 126 ft 14 kts 233°
2026-05-05 18:36 51.28246 6.76265 125 ft 15 kts 232°
2026-05-05 18:36 51.28184 6.76135 126 ft 15 kts 233°
2026-05-05 18:36 51.28126 6.76037 126 ft 11 kts 204°
2026-05-05 18:37 51.28055 6.76047 126 ft 9 kts 174°
2026-05-05 18:37 51.28021 6.76086 128 ft 6 kts 117°
2026-05-05 18:37 51.28008 6.76133 126 ft 4 kts 118°
2026-05-05 18:37 51.27998 6.76162 128 ft 0 kts 118°